星链-4701 (STARLINK-4701 )

导读 | 豆包AI

STARLINK-4701是美国SpaceX星链星座的第二代低轨通信卫星,于北京时间2022年9月5日8时成功发射。该卫星运行在约550公里近地轨道,采用平板构型搭配单太阳阵,以氪工质霍尔推进系统完成轨道机动与末期离轨销毁,搭载相控阵通信载荷,为全球提供高速宽带卫星互联网接入服务,是星链全球组网的重要组成单元。

Basic Information
目录编号:
53727
目录名称:
STARLINK-4701
国际标识:
2022-107AD
轨道中心:
EARTH
卫星名称:
星链-4701
卫星全名:
星链-4701 (STARLINK-4701 )
卫星状态:
在轨 (已飞行1287 天)
发射日期:
2022-09-05 UTC
国别 :
美国 (US)
星等 :
--
Orbit Information
数据来源 国际轨道数据 AOE轨道数据
星历时间 2026-03-15T01:22:01+0800
16小时前
查看轨道信息
2026-03-13T09:00:00+0800
2天前
查看轨道信息
半长轴 6917.871km 6917.869km
偏心率 0.0001243 0.0001226
轨道倾角 53.216° 53.216°
近地点辐角 89.472° 57.881°
升交点赤经 231.517° 239.070°
平近点角 270.642° 161.150°
近地点 538.874km 538.883km
远地点 540.594km 540.581km
周期 95.437分钟 95.437分钟
每日圈数 15.088433 15.08844
Detailed Information
固有亮度:
5
最大亮度:
2.5
卫星平台:
Starlink v1.5
覆盖范围:
全球
运营商:
太空探索技术公司
运营商所在国:
美国
制造商(研发单位):
太空探索技术公司
制造商所在国:
美国
使用方式:
暂无
Satellite Introduction
星链(Starlink)计划是由太空探索技术公司(SpaceX)提出的一个巨型低轨卫星互联网星座项目,计划在2019年至2024年间在太空搭建由约1.2万颗卫星组成的“星链”网络,其中1584颗将部署在地球上空550千米处的近地轨道,并从2020年开始工作。该卫星仍在工作。
2D Orbit Map
3D Orbit Map
Orbit Altitude Analysis Chart
Orbit Inclination Analysis Chart
Orbit Comprehensive Analysis Chart
View Comprehensive Chart